This demonstration page uses our WeatherBlox Daily Observations layout. Learn more.

Left ArrowRight Arrow

39.92423, -83.80882

Hourly Observations for July 24, 2022

Temp ( °F °C ) Dew Point ( °F °C ) Humidity (%) Winds ( mph kmh ) Pressure ( in mb ) Visibility ( mi km ) Precip ( " mm )
12:56 am 00:56 Clear 72 22 N/A N/A SSE 6 9 30.05 1018 10 16 0.00 0.00
1:56 am 01:56 Clear 72 22 N/A N/A S 6 9 30.01 1016 10 16 0.00 0.00
2:56 am 02:56 Clear 72 22 N/A N/A S 3 6 30.01 1016 10 16 0.00 0.00
3:56 am 03:56 Clear 73 23 N/A N/A SSW 6 9 29.99 1016 10 16 0.00 0.00
4:56 am 04:56 Clear 73 23 N/A N/A SW 9 15 29.99 1016 10 16 0.00 0.00
5:56 am 05:56 Clear N/A N/A N/A SW 7 11 N/A 8 13 0.00 0.00
6:56 am 06:56 Hazy N/A N/A N/A VRB 5 7 N/A 6 10 0.00 0.00
7:56 am 07:56 Sunny 75 24 N/A N/A SSW 5 7 29.99 1016 9 14 0.00 0.00
8:56 am 08:56 Sunny 77 25 77 25 100 100 SW 8 13 30.01 1016 10 16 0.00 0.00
9:56 am 09:56 Sunny 79 26.1 79 26.1 100 100 SW 7 11 29.99 1016 10 16 0.00 0.00
10:56 am 10:56 Sunny 83 28.3 80 26.7 91 91 SW 8 13 29.99 1016 10 16 0.00 0.00
11:56 am 11:56 Sunny 84 28.9 77 25 80 80 WSW 15 24 30.00 1016 10 16 0.00 0.00
12:56 pm 12:56 Sunny 84 28.9 77 25 80 80 WSW 10 17 29.99 1016 10 16 0.00 0.00
1:56 pm 13:56 Sunny 82 27.8 80 26.7 94 94 SSW 6 9 29.99 1016 10 16 0.00 0.00
2:56 pm 14:56 Sunny 84 28.9 78 25.6 82 82 SW 12 19 29.96 1015 10 16 0.00 0.00
3:56 pm 15:56 Mostly Sunny 83 28.3 79 26.1 88 88 SW 8 13 29.97 1015 10 16 0.00 0.00
4:56 pm 16:56 Sunny 82 27.8 78 25.6 88 88 SW 8 13 29.96 1015 10 16 0.00 0.00
5:56 pm 17:56 Mostly Sunny 82 27.8 79 26.1 90 90 S 8 13 29.85 1011 10 16 0.00 0.00
6:56 pm 18:56 Sunny 83 28.3 77 25 82 82 S 8 13 29.84 1011 10 16 0.00 0.00
7:56 pm 19:56 Sunny 80 26.7 80 26.7 100 100 SW 6 9 29.91 1013 10 16 0.00 0.00
8:56 pm 20:56 Mostly Cloudy 79 26 N/A N/A SSW 9 15 29.90 1013 9 14 0.00 0.00
9:56 pm 21:56 Clear N/A N/A N/A WSW 3 6 N/A 10 16 0.01 0.25
10:56 pm 22:56 Clear 77 25 N/A N/A WSW 7 11 29.93 1014 10 16 0.04 1.02
11:56 pm 23:56 Clear 77 25 N/A N/A SW 8 13 29.93 1014 10 16 0.04 1.02

Powered by AerisWeather